STARLINK-31054 (58619 NORAD) Tracking and Keplerian Element Data

This shows tracking and keplerian element data for the satellite.

Feedback or suggestion? Click here.




ElementValue
Catalog58619
NameSTARLINK-31054
Epoch Orbit445
Epoch Day13.25002315
Epoch Year2024
RAAN183.7501
Inclination43.0012
Eccentricity0.0001593
Argument of Perigee256.7466
Mean Anonmoly4.9287
Mean Motion15.52647755
Decay Rate-0.01742376
L11 58619U 23203B 24013.25002315 -.01742376 00000+0 -30936-1 0 9990
L22 58619 43.0012 183.7501 0001593 256.7466 4.9287 15.52647755 4450



Live tracking and technical data element details for STARLINK-31054 (NORAD 58619). STARLINK-31054 can be tracked NOW for your location showing map with azimuth and elevation plus other details from your city location.







IsCatalogInMostPopularTable: catalog: 58619, numindb: 27
Update: records affected: 1



GetName: 58619 STARLINK-31054

Hit Count: updated at: Wed, 17 Apr 2024 02:02:13 GMT